Regional Weather Roundup
Issued by NWS

Home | Current Version | Previous Version | Graphics & Text | Print | Product List | Glossary On
Versions: 1 2 3 4 5 6 7 8 9 10 11 12 13 14 15 16 17 18 19 20 21 22 23 24 25 26 27 28 29 30 31 32 33 34 35 36 37 38 39 40 41 42 43 44 45 46 47 48 49 50
000
ASUS43 KOAX 242010
RWRNE

WEATHER ROUNDUP FOR NEBRASKA
NATIONAL WEATHER SERVICE OMAHA NE
200 PM CST SAT JAN 24 2015

NOTES: SATELLITE DATA IS BEING USED TO AUGMENT CLOUD COVER ABOVE
       12000 FEET.
       "FAIR" INDICATES FEW OR NO CLOUDS BELOW 12,000 FEET WITH NO
       SIGNIFICANT WEATHER AND/OR OBSTRUCTIONS TO VISIBILITY.

  * THESE STATIONS DO NOT REPORT WEATHER SUCH AS RAIN...SNOW OR FOG.

NEZ001>004-019>022-054>056-242100-
NEBRASKA PANHANDLE

CITY           SKY/WX    TMP DP  RH WIND       PRES   REMARKS
SCOTTSBLUFF    CLOUDY    43  28  55 W16       29.92F
ALLIANCE       CLOUDY    40  30  67 W18       29.87F WCI  31
CHADRON        CLOUDY    45  29  53 W14       29.86F
KIMBALL        CLOUDY    47  23  39 NW21G30   29.94S
SIDNEY         CLOUDY    47  25  42 NW17G29   29.92F
$$

NEZ057>060-069>072-079>082-242100-
SOUTHWEST NEBRASKA

CITY           SKY/WX    TMP DP  RH WIND       PRES   REMARKS
NORTH PLATTE   PTSUNNY   51  25  36 W14       29.82F
IMPERIAL       PTSUNNY   50  22  33 W13       29.88F
LEXINGTON      PTSUNNY   56  25  30 W20       29.79F
MCCOOK         PTSUNNY   53  26  35 W12       29.86F
OGALLALA       CLOUDY    47  25  41 NW21G30   29.88F
$$

NEZ005>010-023>029-035>040-094-242100-
NORTH CENTRAL NEBRASKA

CITY           SKY/WX    TMP DP  RH WIND       PRES   REMARKS
VALENTINE      CLOUDY    49  30  48 W18       29.73F
AINSWORTH      CLOUDY    46  30  53 W17       29.74F
BROKEN BOW     CLOUDY    53  28  38 W22G28    29.77F
O`NEILL        CLOUDY    51  31  45 W12       29.70F
ORD            PTSUNNY   51  28  41 W12       29.73F
THEDFORD       CLOUDY    52  29  41 NW20G28   29.78F
$$

NEZ041-046>049-061>064-073>077-083>087-242100-
SOUTH CENTRAL NEBRASKA

CITY           SKY/WX    TMP DP  RH WIND       PRES   REMARKS
GRAND ISLAND   PTSUNNY   53  27  36 W15       29.77F
AURORA         PTSUNNY   53  27  36 W13G18    29.74F
HASTINGS       PTSUNNY   53  25  33 W20       29.77F
HEBRON         CLOUDY    52  26  35 W13       29.78F
HOLDREGE       PTSUNNY   52  23  32 W22       29.79F
KEARNEY *      PTSUNNY   52  25  35 W16       29.77F
YORK           PTSUNNY   54  28  37 W16G22    29.74F
$$

NEZ011>018-030>034-042>045-242100-
NORTHEAST NEBRASKA

CITY           SKY/WX    TMP DP  RH WIND       PRES   REMARKS
NORFOLK        CLOUDY    53  30  41 W14       29.67F
ALBION         CLOUDY    52  27  37 W10G17    29.71F
BLAIR          CLOUDY    53  32  45 SW9       29.70F
COLUMBUS *     PTSUNNY   48  30  49 W10       29.73F
FREMONT        CLOUDY    52  30  43 W7        29.72F
TEKAMAH        CLOUDY    48  34  58 SW12      29.70F
WAYNE          CLOUDY    51  31  46 W13       29.68F
$$

NEZ050>053-065>068-078-088>093-242100-
SOUTHEAST NEBRASKA

CITY           SKY/WX    TMP DP  RH WIND       PRES   REMARKS
LINCOLN        CLOUDY    54  30  40 W17       29.74F
OMAHA EPPLEY   CLOUDY    50  31  48 SW6       29.71F
BEATRICE       CLOUDY    54  29  39 W16       29.76F
FALLS CITY     CLOUDY    57  29  34 SW16      29.77F
NEBRASKA CITY  CLOUDY    53  24  31 SW12      29.73F
PLATTSMOUTH    CLOUDY    52  26  35 SW9       29.72F
$$

NEZ044-045-051>053-067-242100-
OMAHA AREA

CITY           SKY/WX    TMP DP  RH WIND       PRES   REMARKS
OMAHA EPPLEY   CLOUDY    50  31  48 SW6       29.71F
BLAIR          CLOUDY    53  32  45 SW9       29.70F
FREMONT        CLOUDY    52  30  43 W7        29.72F
MILLARD        CLOUDY    53  32  45 SW8       29.71F
OFFUTT AFB     CLOUDY    51  30  44 SW9       29.70F
PLATTSMOUTH    CLOUDY    52  26  35 SW9       29.72F
WAHOO          FAIR      53  28  38 W13       29.72F
$$


USA.gov is the U.S. government's official web portal to all federal, state and local government web resources and services.